Weather History for KPEZ - February, 2013

Change the Weather History Date:

Tuesday, February 5, 2013

  Actual Average Record
Temperature  
Mean Temperature 66 °F -  
Max Temperature 80 °F 68 °F - (-1)
Min Temperature 52 °F 45 °F - (-1)
Cooling Degree Days 1    
Growing Degree Days 16 (Base 50)    
Moisture  
Dew Point 45 °F    
Average Humidity 57    
Maximum Humidity 91    
Minimum Humidity 14    
Precipitation  
Precipitation 0.00 in - - ()
Sea Level Pressure  
Sea Level Pressure 29.92 in    
Wind  
Wind Speed 1 mph (NW)    
Max Wind Speed 7 mph    
Max Gust Speed -    
Visibility 8 miles    
Events Fog , Rain    
Averages and records for this station are not official NWS values.
T = Trace of Precipitation, MM = Missing Value Source: NWS Daily Summary

Daily Weather History Graph

Daily Weather History Graph

Search for Another Location

Airport or City:

Trip Planner

Search our weather history database for the weather conditions in past years. The results will help you decide how hot, cold, wet, or windy it might be!

Date:

Astronomy

Feb. 05, 2013 Rise Set
Actual Time 7:20 AM CST 6:16 PM CST
Civil Twilight 6:55 AM CST 6:41 PM CST
Nautical Twilight 6:27 AM CST 7:09 PM CST
Astronomical Twilight 5:59 AM CST 7:37 PM CST
Moon 2:55 AM CST 1:44 PM CST
Length of Visible Light 11h 45m
Length of Day
10h 56m
Waning Crescent, 26% of the Moon is Illuminated
Feb 5
Waning Crescent
Feb 10
New
Feb 17
First Quarter
Feb 25
Full
Mar 4
Last Quarter

Hourly Weather History & Observations

Time (CST) Temp. Dew Point Humidity Pressure Visibility Wind Dir Wind Speed Gust Speed Precip Events Conditions
12:15 AM 55.9 °F 51.8 °F 86% 29.88 in 10.0 mi Calm Calm - N/A   Clear
12:35 AM 54.7 °F 50.5 °F 86% 29.88 in 10.0 mi Calm Calm - N/A   Clear
12:55 AM 54.1 °F 50.2 °F 86% 29.88 in 10.0 mi Calm Calm - N/A   Clear
1:15 AM 53.6 °F 49.3 °F 85% 29.88 in 10.0 mi Calm Calm - N/A   Clear
1:35 AM 54.5 °F 50.9 °F 88% 29.89 in 10.0 mi Calm Calm - N/A   Clear
1:55 AM 53.2 °F 49.6 °F 88% 29.88 in 10.0 mi Calm Calm - N/A   Clear
2:15 AM 53.1 °F 49.1 °F 86% 29.88 in 10.0 mi Calm Calm - N/A   Clear
2:35 AM 53.8 °F 50.0 °F 87% 29.88 in 10.0 mi Calm Calm - N/A   Clear
2:55 AM 54.0 °F 50.4 °F 88% 29.88 in 7.0 mi NNW 3.5 mph - N/A   Clear
3:15 AM 54.0 °F 50.9 °F 89% 29.88 in 7.0 mi NNW 4.6 mph - N/A   Scattered Clouds
3:35 AM 54.5 °F 51.3 °F 89% 29.89 in 0.2 mi NW 3.5 mph - N/A Fog Fog
3:55 AM 54.7 °F 51.6 °F 89% 29.88 in 0.2 mi Calm Calm - N/A Fog Fog
4:15 AM 54.1 °F 51.1 °F 89% 29.88 in 0.2 mi Calm Calm - N/A Fog Fog
4:35 AM 53.8 °F 50.9 °F 90% 29.89 in 0.2 mi Calm Calm - N/A Fog Fog
4:55 AM 53.8 °F 50.9 °F 90% 29.89 in 0.2 mi Calm Calm - N/A Fog Fog
5:15 AM 52.9 °F 50.0 °F 90% 29.89 in 0.2 mi Calm Calm - N/A Rain Rain
5:35 AM 52.7 °F 49.6 °F 89% 29.89 in 0.2 mi Calm Calm - N/A Rain Light Rain
5:55 AM 52.2 °F 49.3 °F 90% 29.90 in 0.5 mi Calm Calm - N/A Fog Fog
6:15 AM 53.6 °F 50.9 °F 91% 29.91 in 0.5 mi Calm Calm - N/A Fog Fog
6:35 AM 53.8 °F 50.9 °F 90% 29.92 in 0.2 mi WNW 3.5 mph - N/A Rain Light Rain
6:55 AM 53.8 °F 50.9 °F 90% 29.93 in 0.2 mi Calm Calm - N/A Rain Light Rain
7:15 AM 53.6 °F 50.7 °F 90% 29.93 in 0.2 mi Calm Calm - N/A Rain Light Rain
7:35 AM 52.5 °F 49.8 °F 91% 29.94 in 0.2 mi Calm Calm - N/A Rain Rain
7:55 AM 52.2 °F 49.5 °F 91% 29.94 in 3.0 mi Calm Calm - N/A Rain Rain
8:15 AM 53.4 °F 50.7 °F 91% 29.95 in 7.0 mi North - - N/A Rain Rain
8:35 AM 54.5 °F 51.8 °F 91% 29.95 in 7.0 mi Calm Calm - N/A   Clear
8:55 AM 56.3 °F 53.6 °F 91% 29.96 in 10.0 mi Calm Calm - N/A   Clear
9:15 AM 58.1 °F 54.9 °F 89% 29.96 in 10.0 mi Calm Calm - N/A   Clear
9:35 AM 59.9 °F 53.1 °F 78% 29.96 in 10.0 mi NNW 3.5 mph - N/A   Clear
9:55 AM 64.8 °F 50.5 °F 60% 29.97 in 10.0 mi North 3.5 mph - N/A   Clear
10:15 AM 68.7 °F 50.4 °F 52% 29.97 in 10.0 mi NW 3.5 mph - N/A   Clear
10:35 AM 72.3 °F 50.0 °F 45% 29.97 in 10.0 mi WNW 3.5 mph - N/A   Clear
10:55 AM 74.5 °F 48.4 °F 40% 29.97 in 10.0 mi Calm Calm - N/A   Clear
11:15 AM 75.2 °F 45.1 °F 34% 29.97 in 10.0 mi WNW 4.6 mph - N/A   Clear
11:35 AM 76.1 °F 44.4 °F 32% 29.97 in 10.0 mi Calm Calm - N/A   Clear
11:55 AM 76.5 °F 41.5 °F 29% 29.97 in 10.0 mi Calm Calm - N/A   Clear
12:15 PM 77.5 °F 39.6 °F 26% 29.96 in 10.0 mi Calm Calm - N/A   Scattered Clouds
12:35 PM 78.3 °F 39.6 °F 25% 29.96 in 10.0 mi NNW 3.5 mph - N/A   Scattered Clouds
12:55 PM 79.3 °F 37.4 °F 22% 29.94 in 7.0 mi Calm Calm - N/A   Clear
1:15 PM 79.7 °F 35.8 °F 21% 29.94 in 10.0 mi WNW 5.8 mph - N/A   Scattered Clouds
1:35 PM 80.6 °F 30.2 °F 16% 29.93 in 10.0 mi SW 6.9 mph - N/A   Clear
1:55 PM 80.1 °F 30.0 °F 16% 29.92 in 10.0 mi NNW 3.5 mph - N/A   Scattered Clouds
2:15 PM 79.7 °F 30.0 °F 16% 29.91 in 10.0 mi Calm Calm - N/A   Scattered Clouds
2:35 PM 79.7 °F 29.5 °F 16% 29.91 in 10.0 mi Calm Calm - N/A   Scattered Clouds
2:55 PM 80.1 °F 28.9 °F 15% 29.90 in 10.0 mi West 3.5 mph - N/A   Clear
3:15 PM 79.7 °F 28.2 °F 15% 29.89 in 7.0 mi Calm Calm - N/A   Clear
3:35 PM 79.3 °F 27.7 °F 15% 29.88 in 10.0 mi Calm Calm - N/A   Clear
3:55 PM 80.2 °F 27.3 °F 14% 29.88 in 10.0 mi Calm Calm - N/A   Scattered Clouds
4:15 PM 80.1 °F 27.5 °F 15% 29.88 in 10.0 mi Calm Calm - N/A   Scattered Clouds
4:35 PM 78.3 °F 33.4 °F 20% 29.88 in 10.0 mi Calm Calm - N/A   Scattered Clouds
5:15 PM 75.7 °F 40.1 °F 28% 29.88 in 10.0 mi Calm Calm - N/A   Scattered Clouds
5:55 PM 73.6 °F 44.4 °F 35% 29.88 in 7.0 mi Calm Calm - N/A   Mostly Cloudy
6:15 PM 71.6 °F 46.2 °F 40% 29.88 in 10.0 mi Calm Calm - N/A   Overcast
6:35 PM 69.6 °F 43.5 °F 39% 29.89 in 10.0 mi Calm Calm - N/A   Mostly Cloudy
6:55 PM 70.0 °F 43.5 °F 38% 29.89 in 10.0 mi Calm Calm - N/A   Mostly Cloudy
7:15 PM 72.5 °F 41.5 °F 33% 29.90 in 10.0 mi NE 3.5 mph - N/A   Overcast
7:35 PM 71.8 °F 43.9 °F 37% 29.90 in 10.0 mi East 3.5 mph - N/A   Mostly Cloudy
7:55 PM 71.1 °F 45.9 °F 40% 29.91 in 10.0 mi Calm Calm - N/A   Mostly Cloudy
8:15 PM 70.9 °F 45.5 °F 40% 29.91 in 10.0 mi Calm Calm - N/A   Overcast
8:35 PM 71.6 °F 45.1 °F 39% 29.91 in 10.0 mi ENE 4.6 mph - N/A   Overcast
8:55 PM 70.9 °F 45.7 °F 40% 29.93 in 10.0 mi Calm Calm - N/A   Overcast
9:15 PM 69.8 °F 46.6 °F 43% 29.93 in 7.0 mi East 3.5 mph - N/A   Overcast
9:35 PM 70.2 °F 46.0 °F 42% 29.93 in 10.0 mi East 3.5 mph - N/A   Overcast
9:55 PM 70.0 °F 45.9 °F 42% 29.95 in 10.0 mi Calm Calm - N/A   Overcast
10:15 PM 69.6 °F 48.0 °F 46% 29.96 in 10.0 mi Calm Calm - N/A Rain Light Rain
10:35 PM 69.8 °F 50.5 °F 50% 29.97 in 10.0 mi NNE 3.5 mph - N/A Rain Rain
10:55 PM 69.1 °F 51.3 °F 53% 29.99 in 10.0 mi West 5.8 mph - N/A Rain Rain
11:15 PM 64.9 °F 53.2 °F 66% 30.00 in 10.0 mi WNW 5.8 mph - N/A Rain Light Rain
11:35 PM 63.7 °F 52.7 °F 67% 30.01 in 10.0 mi WSW 3.5 mph - N/A   Mostly Cloudy
11:55 PM 63.0 °F 53.4 °F 71% 29.99 in 10.0 mi ESE 5.8 mph - N/A Rain Light Rain